Haines, AK

10:07 PM AKDT on June 26, 2017 (GMT -0800)
Haines

Weather History for PAHN - September, 2011

Change the Weather History Date:

Friday, September 16, 2011

  Actual Average Record
Temperature  
Mean Temperature 50 °F -  
Max Temperature 55 °F 52 °F 75 °F (2010)
Min Temperature 46 °F 44 °F 30 °F (2006)
Degree Days  
Heating Degree Days 15    
Moisture  
Dew Point 45 °F    
Average Humidity 87    
Maximum Humidity 100    
Minimum Humidity 71    
Precipitation  
Precipitation 0.00 in - - ()
Sea Level Pressure  
Sea Level Pressure 29.75 in    
Wind  
Wind Speed 4 mph (ESE)    
Max Wind Speed 6 mph    
Max Gust Speed -    
Visibility 10 miles    
Events      
Averages and records for this station are not official NWS values.
T = Trace of Precipitation, MM = Missing Value Source: NWS Daily Summary

Daily Weather History Graph

Daily Weather History Graph

Search for Another Location

Airport or City:

Trip Planner

Search our weather history database for the weather conditions in past years. The results will help you decide how hot, cold, wet, or windy it might be!

Date:

Astronomy

Sep. 16, 2011 Rise Set
Actual Time 6:32 AM AKDT 7:19 PM AKDT
Civil Twilight 5:51 AM AKDT 8:00 PM AKDT
Nautical Twilight 5:01 AM AKDT 8:50 PM AKDT
Astronomical Twilight 4:04 AM AKDT 9:46 PM AKDT
Moon 7:48 PM AKDT (9/16) 12:09 PM AKDT (9/16)
Length of Visible Light 14h 09m
Length of Day
12h 46m
Waning Gibbous, 83% of the Moon is Illuminated
Sep 16
Waning Gibbous
Sep 20
Last Quarter
Sep 27
New
Oct 3
First Quarter
Oct 11
Full

Hourly Weather History & Observations

Time (AKDT) Temp. Windchill Dew Point Humidity Pressure Visibility Wind Dir Wind Speed Gust Speed Precip Events Conditions
12:12 AM 50.0 °F - 44.6 °F 82% 29.80 in 10.0 mi ENE 4.6 mph - N/A   Overcast
12:46 AM 48.2 °F - 44.6 °F 87% 29.79 in 10.0 mi East 4.6 mph - N/A   Overcast
12:54 AM 48.9 °F - 45.0 °F 86% 29.80 in 10.0 mi East 4.6 mph - N/A   Overcast
1:07 AM 48.2 °F - 44.6 °F 87% 29.79 in 10.0 mi East 4.6 mph - N/A   Overcast
1:54 AM 46.9 °F - 46.0 °F 97% 29.80 in 10.0 mi East 5.8 mph - N/A   Overcast
2:08 AM 46.4 °F 45.2 °F 46.4 °F 100% 29.79 in 10.0 mi East 3.5 mph - N/A   Overcast
2:54 AM 46.9 °F - 46.0 °F 97% 29.79 in 10.0 mi East 4.6 mph - N/A   Overcast
3:54 AM 46.9 °F - 46.0 °F 97% 29.78 in 10.0 mi ESE 4.6 mph - N/A   Overcast
4:54 AM 46.9 °F - 46.0 °F 97% 29.78 in 10.0 mi West 3.5 mph - N/A   Overcast
5:54 AM 46.9 °F - 45.0 °F 93% 29.78 in 10.0 mi Calm Calm - N/A   Overcast
6:54 AM 46.9 °F - 45.0 °F 93% 29.78 in 10.0 mi Calm Calm - N/A   Overcast
7:54 AM 46.9 °F - 45.0 °F 93% 29.77 in 10.0 mi Calm Calm - N/A   Overcast
8:54 AM 46.9 °F - 45.0 °F 93% 29.77 in 10.0 mi Calm Calm - N/A   Overcast
9:54 AM 48.9 °F - 46.0 °F 90% 29.77 in 10.0 mi WSW 3.5 mph - N/A   Overcast
10:54 AM 48.9 °F - 46.0 °F 90% 29.77 in 10.0 mi Calm Calm - N/A   Overcast
11:10 AM 51.8 °F - 46.4 °F 82% 29.75 in 10.0 mi SE 4.6 mph - N/A   Overcast
11:54 AM 51.1 °F - 46.9 °F 86% 29.76 in 10.0 mi South 4.6 mph - N/A   Overcast
12:10 PM 51.8 °F - 46.4 °F 82% 29.75 in 10.0 mi South 3.5 mph - N/A   Overcast
12:22 PM 51.8 °F - 46.4 °F 82% 29.74 in 10.0 mi SSE 3.5 mph - N/A   Overcast
12:54 PM 53.1 °F - 46.9 °F 80% 29.75 in 10.0 mi South 4.6 mph - N/A   Overcast
1:54 PM 54.0 °F - 46.9 °F 77% 29.75 in 10.0 mi SE 5.8 mph - N/A   Overcast
2:54 PM 53.1 °F - 45.0 °F 74% 29.74 in 10.0 mi ESE 5.8 mph - N/A   Mostly Cloudy
3:54 PM 53.1 °F - 44.1 °F 71% 29.73 in 10.0 mi ESE 5.8 mph - N/A   Overcast
4:54 PM 53.1 °F - 44.1 °F 71% 29.72 in 10.0 mi Calm Calm - N/A   Partly Cloudy
5:54 PM 52.0 °F - 45.0 °F 77% 29.71 in 10.0 mi Calm Calm - N/A   Scattered Clouds
6:54 PM 50.0 °F - 46.0 °F 86% 29.70 in 10.0 mi ENE 3.5 mph - N/A   Mostly Cloudy
7:54 PM 48.0 °F - 44.1 °F 86% 29.70 in 10.0 mi East 3.5 mph - N/A   Clear
8:54 PM 46.9 °F - 44.1 °F 90% 29.70 in 10.0 mi East 4.6 mph - N/A   Overcast
9:54 PM 46.9 °F - 45.0 °F 93% 29.69 in 10.0 mi ESE 3.5 mph - N/A   Overcast
10:54 PM 46.9 °F - 45.0 °F 93% 29.69 in 10.0 mi East 4.6 mph - N/A   Overcast
11:54 PM 46.9 °F - 45.0 °F 93% 29.70 in 10.0 mi East 4.6 mph - 0.00 in   Overcast